VJT569 EGKK-EHAM

Flight info

Callsign VJT569
Flight time 0h 46m
Altitude 29000
Route FRANE M604 GASBA M197 REDFA
Aircraft CL60/M-SBDE1E2E3FGHIJ1J4J5J7M3RWXYZ/LB1V1D1

Departure

Time 2026-05-07 11:10
Airport London Gatwick Airport (EGKK)

Arrival

Time 2026-05-07 11:56
Airport Amsterdam Airport Schiphol (EHAM)
Time Latitude Longitude Altitude Speed Heading
2026-05-07 10:08 51.14755 -0.17260 202 ft 0 kts 224°
2026-05-07 10:54 51.14754 -0.17262 203 ft 1 kts 224°
2026-05-07 10:55 51.14748 -0.17272 202 ft 1 kts 224°
2026-05-07 10:55 51.14743 -0.17280 202 ft 1 kts 230°
2026-05-07 10:55 51.14750 -0.17305 202 ft 5 kts 341°
2026-05-07 10:55 51.14793 -0.17307 202 ft 7 kts 347°
2026-05-07 10:56 51.14819 -0.17363 202 ft 7 kts 265°
2026-05-07 10:56 51.14816 -0.17394 202 ft 0 kts 260°
2026-05-07 10:56 51.14814 -0.17409 202 ft 0 kts 259°
2026-05-07 10:56 51.14814 -0.17411 202 ft 1 kts 258°
2026-05-07 10:57 51.14808 -0.17448 202 ft 5 kts 257°
2026-05-07 10:57 51.14798 -0.17520 202 ft 6 kts 258°
2026-05-07 10:57 51.14801 -0.17602 201 ft 7 kts 290°
2026-05-07 10:57 51.14831 -0.17658 201 ft 6 kts 331°
2026-05-07 10:58 51.14882 -0.17684 200 ft 7 kts 346°
2026-05-07 10:58 51.14935 -0.17704 200 ft 9 kts 346°
2026-05-07 10:58 51.15001 -0.17731 200 ft 10 kts 346°
2026-05-07 10:58 51.15069 -0.17749 200 ft 9 kts 354°
2026-05-07 10:59 51.15102 -0.17755 200 ft 1 kts 353°
2026-05-07 10:59 51.15105 -0.17755 200 ft 0 kts 353°
2026-05-07 10:59 51.15110 -0.17756 200 ft 2 kts 352°
2026-05-07 11:00 51.15142 -0.17763 199 ft 6 kts 353°
2026-05-07 11:00 51.15187 -0.17772 199 ft 7 kts 353°
2026-05-07 11:00 51.15228 -0.17794 199 ft 6 kts 319°
2026-05-07 11:00 51.15241 -0.17831 199 ft 0 kts 278°
2026-05-07 11:01 51.15241 -0.17844 199 ft 0 kts 269°
2026-05-07 11:01 51.15240 -0.17854 199 ft 2 kts 261°
2026-05-07 11:01 51.15233 -0.17905 199 ft 6 kts 258°
2026-05-07 11:01 51.15221 -0.17992 199 ft 8 kts 257°
2026-05-07 11:02 51.15206 -0.18104 199 ft 12 kts 257°
2026-05-07 11:02 51.15186 -0.18249 199 ft 14 kts 259°
2026-05-07 11:02 51.15169 -0.18400 199 ft 15 kts 261°
2026-05-07 11:02 51.15152 -0.18555 199 ft 9 kts 259°
2026-05-07 11:03 51.15136 -0.18672 199 ft 12 kts 258°
2026-05-07 11:03 51.15115 -0.18825 199 ft 15 kts 258°
2026-05-07 11:03 51.15089 -0.19013 199 ft 18 kts 258°
2026-05-07 11:03 51.15065 -0.19182 199 ft 9 kts 260°
2026-05-07 11:04 51.15049 -0.19305 199 ft 13 kts 257°
2026-05-07 11:04 51.15028 -0.19461 199 ft 15 kts 257°
2026-05-07 11:04 51.15002 -0.19647 200 ft 18 kts 258°
2026-05-07 11:04 51.14975 -0.19837 200 ft 18 kts 258°
2026-05-07 11:05 51.14953 -0.20005 200 ft 14 kts 259°
2026-05-07 11:05 51.14928 -0.20176 200 ft 17 kts 258°
2026-05-07 11:05 51.14901 -0.20381 200 ft 19 kts 258°
2026-05-07 11:05 51.14872 -0.20592 201 ft 18 kts 257°
2026-05-07 11:06 51.14843 -0.20796 201 ft 19 kts 257°
2026-05-07 11:06 51.14817 -0.20992 202 ft 16 kts 258°
2026-05-07 11:06 51.14795 -0.21143 202 ft 7 kts 249°
2026-05-07 11:06 51.14775 -0.21235 203 ft 10 kts 258°
2026-05-07 11:07 51.14762 -0.21328 203 ft 5 kts 258°
2026-05-07 11:07 51.14761 -0.21335 203 ft 0 kts 258°
2026-05-07 11:07 51.14759 -0.21346 203 ft 3 kts 254°
2026-05-07 11:07 51.14746 -0.21391 203 ft 5 kts 225°
2026-05-07 11:08 51.14706 -0.21403 203 ft 7 kts 166°
2026-05-07 11:08 51.14661 -0.21364 203 ft 7 kts 131°
2026-05-07 11:08 51.14628 -0.21329 203 ft 4 kts 169°
2026-05-07 11:08 51.14593 -0.21318 203 ft 7 kts 164°
2026-05-07 11:09 51.14542 -0.21270 203 ft 10 kts 130°
2026-05-07 11:09 51.14522 -0.21145 203 ft 15 kts 80°
2026-05-07 11:09 51.14601 -0.20580 201 ft 98 kts 78°
2026-05-07 11:09 51.14795 -0.19161 366 ft 155 kts 80°
2026-05-07 11:10 51.15031 -0.17342 975 ft 179 kts 78°
2026-05-07 11:10 51.15304 -0.15406 1790 ft 188 kts 78°
2026-05-07 11:10 51.15599 -0.13290 2521 ft 211 kts 78°
2026-05-07 11:10 51.15924 -0.10940 3250 ft 224 kts 78°
2026-05-07 11:11 51.16266 -0.08444 4068 ft 240 kts 78°
2026-05-07 11:11 51.16631 -0.05756 4700 ft 264 kts 78°
2026-05-07 11:11 51.16914 -0.02818 4935 ft 268 kts 89°
2026-05-07 11:11 51.16876 0.00133 4990 ft 267 kts 92°
2026-05-07 11:12 51.16817 0.03095 4988 ft 267 kts 92°
2026-05-07 11:12 51.16760 0.06081 4988 ft 267 kts 92°
2026-05-07 11:12 51.16704 0.08997 4987 ft 267 kts 92°
2026-05-07 11:12 51.16648 0.11945 4987 ft 267 kts 92°
2026-05-07 11:13 51.16597 0.14913 4991 ft 267 kts 91°
2026-05-07 11:13 51.16595 0.17846 4990 ft 267 kts 90°
2026-05-07 11:13 51.16599 0.20800 4989 ft 266 kts 90°
2026-05-07 11:13 51.16604 0.23739 4988 ft 266 kts 90°
2026-05-07 11:14 51.16607 0.26700 4988 ft 266 kts 90°
2026-05-07 11:14 51.16610 0.29609 4990 ft 266 kts 90°
2026-05-07 11:14 51.16613 0.32556 4986 ft 265 kts 90°
2026-05-07 11:14 51.16615 0.35501 4986 ft 265 kts 90°
2026-05-07 11:15 51.16617 0.38421 4986 ft 265 kts 90°
2026-05-07 11:15 51.16618 0.41362 4984 ft 265 kts 90°
2026-05-07 11:15 51.16618 0.44317 4984 ft 264 kts 90°
2026-05-07 11:15 51.16618 0.47212 4985 ft 264 kts 90°
2026-05-07 11:16 51.16693 0.50140 4993 ft 265 kts 80°
2026-05-07 11:16 51.17352 0.52853 4994 ft 265 kts 57°
2026-05-07 11:16 51.18662 0.54935 4998 ft 265 kts 32°
2026-05-07 11:16 51.20364 0.56003 4994 ft 266 kts 13°
2026-05-07 11:17 51.22186 0.56671 4990 ft 266 kts 13°
2026-05-07 11:17 51.23979 0.57335 4993 ft 266 kts 13°
2026-05-07 11:17 51.25782 0.58005 4999 ft 266 kts 13°
2026-05-07 11:17 51.27576 0.58674 4986 ft 265 kts 12°
2026-05-07 11:18 51.29371 0.59342 4992 ft 265 kts 13°
2026-05-07 11:18 51.31194 0.60022 5013 ft 274 kts 13°
2026-05-07 11:18 51.33120 0.60742 5671 ft 290 kts 13°
2026-05-07 11:18 51.35059 0.61469 5976 ft 281 kts 12°
2026-05-07 11:19 51.36928 0.62169 6002 ft 275 kts 12°
2026-05-07 11:19 51.38799 0.62871 5999 ft 273 kts 13°
2026-05-07 11:19 51.40741 0.63604 6497 ft 303 kts 12°
2026-05-07 11:19 51.42717 0.64350 8321 ft 297 kts 13°
2026-05-07 11:20 51.44648 0.65081 10107 ft 291 kts 14°
2026-05-07 11:20 51.46565 0.65807 11598 ft 293 kts 14°
2026-05-07 11:20 51.48558 0.66562 12961 ft 299 kts 13°
2026-05-07 11:20 51.50562 0.67323 14224 ft 305 kts 13°
2026-05-07 11:21 51.52634 0.68110 15457 ft 312 kts 13°
2026-05-07 11:21 51.54741 0.68912 16643 ft 317 kts 13°
2026-05-07 11:21 51.56873 0.69723 17756 ft 323 kts 13°
2026-05-07 11:21 51.59061 0.70555 18804 ft 329 kts 13°
2026-05-07 11:22 51.61306 0.71408 19815 ft 335 kts 13°
2026-05-07 11:22 51.63580 0.72273 20801 ft 340 kts 13°
2026-05-07 11:22 51.65879 0.73148 21738 ft 346 kts 13°
2026-05-07 11:22 51.68233 0.74045 22651 ft 351 kts 13°
2026-05-07 11:23 51.70598 0.74948 23512 ft 356 kts 13°
2026-05-07 11:23 51.73003 0.75867 24366 ft 361 kts 13°
2026-05-07 11:23 51.75458 0.76807 25268 ft 365 kts 14°
2026-05-07 11:23 51.77911 0.77749 26128 ft 368 kts 14°
2026-05-07 11:24 51.80399 0.78724 26943 ft 371 kts 17°
2026-05-07 11:24 51.82719 0.80549 27732 ft 370 kts 40°
2026-05-07 11:24 51.84325 0.83710 28422 ft 371 kts 65°
2026-05-07 11:24 51.85163 0.87744 28917 ft 379 kts 76°
2026-05-07 11:25 51.85856 0.91931 29053 ft 396 kts 76°
2026-05-07 11:25 51.86579 0.96324 29071 ft 414 kts 76°
2026-05-07 11:25 51.87345 1.00961 29066 ft 432 kts 75°
2026-05-07 11:25 51.88141 1.05734 29067 ft 445 kts 75°
2026-05-07 11:26 51.89832 1.15445 29072 ft 452 kts 74°
2026-05-07 11:26 51.91564 1.25120 29071 ft 447 kts 74°
2026-05-07 11:27 51.93279 1.34749 29071 ft 446 kts 74°
2026-05-07 11:27 51.94994 1.44429 29071 ft 446 kts 74°
2026-05-07 11:28 51.96701 1.54109 29072 ft 446 kts 74°
2026-05-07 11:28 51.98403 1.63809 29071 ft 446 kts 74°
2026-05-07 11:29 51.99996 1.73551 29071 ft 447 kts 76°
2026-05-07 11:29 52.01519 1.83320 29072 ft 448 kts 76°
2026-05-07 11:30 52.03033 1.93096 29072 ft 448 kts 76°
2026-05-07 11:30 52.04520 2.02758 28511 ft 430 kts 76°
2026-05-07 11:31 52.05232 2.07397 27992 ft 420 kts 76°
2026-05-07 11:31 52.05926 2.11942 27468 ft 412 kts 76°
2026-05-07 11:31 52.06605 2.16401 26950 ft 405 kts 76°
2026-05-07 11:31 52.07274 2.20800 26418 ft 399 kts 76°
2026-05-07 11:32 52.08577 2.29407 25388 ft 387 kts 76°
2026-05-07 11:32 52.09206 2.33580 24881 ft 382 kts 76°
2026-05-07 11:32 52.09833 2.37750 24384 ft 377 kts 76°
2026-05-07 11:33 52.10449 2.41858 23887 ft 372 kts 76°
2026-05-07 11:33 52.11052 2.45887 23401 ft 369 kts 76°
2026-05-07 11:33 52.11853 2.49800 22918 ft 364 kts 63°
2026-05-07 11:33 52.13106 2.53336 22560 ft 355 kts 59°
2026-05-07 11:34 52.14343 2.56719 22305 ft 345 kts 59°
2026-05-07 11:34 52.15564 2.60078 21992 ft 343 kts 59°
2026-05-07 11:34 52.16778 2.63427 21690 ft 345 kts 59°
2026-05-07 11:34 52.17987 2.66765 21377 ft 344 kts 59°
2026-05-07 11:35 52.19191 2.70097 21074 ft 343 kts 59°
2026-05-07 11:35 52.20393 2.73426 20766 ft 341 kts 59°
2026-05-07 11:35 52.21595 2.76763 20461 ft 340 kts 59°
2026-05-07 11:35 52.22779 2.80052 20160 ft 338 kts 59°
2026-05-07 11:36 52.23960 2.83340 19862 ft 336 kts 59°
2026-05-07 11:36 52.25140 2.86627 19555 ft 335 kts 59°
2026-05-07 11:36 52.26309 2.89889 19258 ft 333 kts 59°
2026-05-07 11:36 52.27477 2.93153 18955 ft 332 kts 59°
2026-05-07 11:37 52.28637 2.96400 18663 ft 330 kts 59°
2026-05-07 11:37 52.29773 2.99585 18370 ft 328 kts 59°
2026-05-07 11:37 52.30919 3.02800 18078 ft 327 kts 59°
2026-05-07 11:37 52.32060 3.06008 17780 ft 325 kts 59°
2026-05-07 11:38 52.33177 3.09150 17502 ft 323 kts 59°
2026-05-07 11:38 52.34297 3.12307 17208 ft 321 kts 59°
2026-05-07 11:38 52.35416 3.15465 16932 ft 319 kts 59°
2026-05-07 11:38 52.36514 3.18565 16653 ft 319 kts 59°
2026-05-07 11:39 52.37619 3.21691 16342 ft 317 kts 59°
2026-05-07 11:39 52.38719 3.24805 16080 ft 316 kts 59°
2026-05-07 11:39 52.39818 3.27922 15791 ft 314 kts 59°
2026-05-07 11:39 52.40902 3.31000 15512 ft 313 kts 59°
2026-05-07 11:40 52.41989 3.34090 15231 ft 312 kts 59°
2026-05-07 11:40 52.43058 3.37135 14952 ft 310 kts 59°
2026-05-07 11:40 52.44140 3.40217 14677 ft 309 kts 59°
2026-05-07 11:40 52.45004 3.43372 14400 ft 308 kts 73°
2026-05-07 11:41 52.45501 3.46772 14091 ft 307 kts 76°
2026-05-07 11:41 52.45982 3.50162 13851 ft 306 kts 76°
2026-05-07 11:41 52.46468 3.53568 13546 ft 305 kts 76°
2026-05-07 11:41 52.46946 3.56920 13283 ft 302 kts 76°
2026-05-07 11:42 52.47426 3.60289 13015 ft 302 kts 76°
2026-05-07 11:42 52.47900 3.63626 12738 ft 300 kts 76°
2026-05-07 11:42 52.48375 3.66975 12476 ft 300 kts 77°
2026-05-07 11:42 52.48840 3.70260 12211 ft 298 kts 77°
2026-05-07 11:43 52.49305 3.73552 11936 ft 296 kts 77°
2026-05-07 11:43 52.49771 3.76851 11684 ft 295 kts 77°
2026-05-07 11:43 52.50233 3.80135 11404 ft 294 kts 77°
2026-05-07 11:43 52.50689 3.83379 11150 ft 292 kts 77°
2026-05-07 11:44 52.51145 3.86630 10901 ft 293 kts 77°
2026-05-07 11:44 52.51599 3.89876 10609 ft 290 kts 77°
2026-05-07 11:44 52.52046 3.93074 10384 ft 289 kts 77°
2026-05-07 11:44 52.52335 3.96341 10105 ft 288 kts 92°
2026-05-07 11:45 52.51902 3.99472 9830 ft 283 kts 111°
2026-05-07 11:45 52.51167 4.02458 9598 ft 283 kts 112°
2026-05-07 11:45 52.50428 4.05483 9355 ft 284 kts 112°
2026-05-07 11:45 52.49704 4.08448 9100 ft 281 kts 112°
2026-05-07 11:46 52.48979 4.11415 8855 ft 280 kts 112°
2026-05-07 11:46 52.48255 4.14374 8629 ft 278 kts 111°
2026-05-07 11:46 52.47536 4.17305 8378 ft 277 kts 112°
2026-05-07 11:46 52.46819 4.20228 8130 ft 276 kts 112°
2026-05-07 11:47 52.46108 4.23123 7882 ft 274 kts 112°
2026-05-07 11:47 52.45397 4.26013 7705 ft 276 kts 112°
2026-05-07 11:47 52.44674 4.28948 7412 ft 275 kts 112°
2026-05-07 11:47 52.43964 4.31829 7166 ft 272 kts 112°
2026-05-07 11:48 52.43206 4.34644 6947 ft 271 kts 121°
2026-05-07 11:48 52.41980 4.36917 6664 ft 269 kts 143°
2026-05-07 11:48 52.40302 4.38187 6416 ft 267 kts 167°
2026-05-07 11:48 52.38461 4.38326 6092 ft 267 kts 183°
2026-05-07 11:49 52.36617 4.38076 5915 ft 266 kts 184°
2026-05-07 11:49 52.34747 4.37834 5658 ft 266 kts 184°
2026-05-07 11:49 52.32932 4.37601 5436 ft 262 kts 183°
2026-05-07 11:49 52.31124 4.37369 5228 ft 255 kts 183°
2026-05-07 11:50 52.29388 4.37148 5009 ft 250 kts 183°
2026-05-07 11:50 52.27659 4.36927 4775 ft 245 kts 183°
2026-05-07 11:50 52.25986 4.36746 4561 ft 239 kts 178°
2026-05-07 11:50 52.24392 4.37324 4341 ft 231 kts 152°
2026-05-07 11:51 52.23166 4.38898 4122 ft 223 kts 127°
2026-05-07 11:51 52.22401 4.41065 3879 ft 221 kts 114°
2026-05-07 11:51 52.21756 4.43326 3702 ft 224 kts 114°
2026-05-07 11:51 52.21097 4.45660 3498 ft 227 kts 109°
2026-05-07 11:52 52.20850 4.48139 3324 ft 220 kts 90°
2026-05-07 11:52 52.20819 4.50597 3127 ft 209 kts 90°
2026-05-07 11:52 52.20961 4.52822 2934 ft 194 kts 68°
2026-05-07 11:52 52.21615 4.54731 2689 ft 192 kts 57°
2026-05-07 11:53 52.22298 4.56562 2439 ft 188 kts 58°
2026-05-07 11:53 52.22955 4.58304 2202 ft 173 kts 57°
2026-05-07 11:53 52.23568 4.59901 1979 ft 160 kts 56°
2026-05-07 11:53 52.24144 4.61392 1760 ft 149 kts 56°
2026-05-07 11:54 52.24685 4.62791 1560 ft 144 kts 56°
2026-05-07 11:54 52.25221 4.64178 1362 ft 146 kts 56°
2026-05-07 11:54 52.25764 4.65582 1172 ft 146 kts 57°
2026-05-07 11:54 52.26302 4.66975 987 ft 139 kts 57°
2026-05-07 11:55 52.26724 4.68077 829 ft 125 kts 58°
2026-05-07 11:55 52.27190 4.69283 659 ft 126 kts 58°
2026-05-07 11:55 52.27575 4.70295 515 ft 125 kts 59°
2026-05-07 11:55 52.28040 4.71511 363 ft 126 kts 57°
2026-05-07 11:56 52.28515 4.72714 189 ft 126 kts 57°
2026-05-07 11:56 52.28988 4.73924 20 ft 125 kts 58°
2026-05-07 11:56 52.29404 4.75010 -4 ft 101 kts 58°
2026-05-07 11:56 52.29653 4.75658 -5 ft 39 kts 58°
2026-05-07 11:57 52.29795 4.76031 -4 ft 38 kts 59°
2026-05-07 11:57 52.29930 4.76373 -4 ft 23 kts 56°
2026-05-07 11:57 52.30024 4.76534 -5 ft 16 kts 34°
2026-05-07 11:57 52.30122 4.76617 -5 ft 10 kts 29°
2026-05-07 11:58 52.30195 4.76685 -4 ft 11 kts 28°
2026-05-07 11:58 52.30261 4.76741 -4 ft 7 kts 25°
2026-05-07 11:58 52.30303 4.76802 -5 ft 7 kts 58°
2026-05-07 11:58 52.30336 4.76888 -4 ft 10 kts 57°
2026-05-07 11:59 52.30374 4.76985 -4 ft 8 kts 58°
2026-05-07 11:59 52.30411 4.77082 -4 ft 11 kts 58°
2026-05-07 11:59 52.30447 4.77173 -4 ft 10 kts 60°
2026-05-07 11:59 52.30490 4.77286 -4 ft 11 kts 58°
2026-05-07 12:00 52.30539 4.77417 -4 ft 14 kts 58°
2026-05-07 12:00 52.30593 4.77541 -4 ft 12 kts 49°
2026-05-07 12:00 52.30674 4.77590 -4 ft 13 kts
2026-05-07 12:00 52.30770 4.77599 -4 ft 14 kts
2026-05-07 12:01 52.30841 4.77606 -4 ft 11 kts
2026-05-07 12:01 52.30935 4.77615 -4 ft 15 kts
2026-05-07 12:01 52.31044 4.77625 -4 ft 16 kts
2026-05-07 12:01 52.31165 4.77636 -4 ft 15 kts
2026-05-07 12:02 52.31262 4.77656 -4 ft 12 kts 32°
2026-05-07 12:02 52.31294 4.77758 -4 ft 10 kts 63°
2026-05-07 12:02 52.31344 4.77862 -4 ft 13 kts 63°
2026-05-07 12:02 52.31358 4.78000 -4 ft 11 kts 86°
2026-05-07 12:03 52.31363 4.78147 -4 ft 14 kts 85°
2026-05-07 12:03 52.31370 4.78336 -4 ft 18 kts 87°
2026-05-07 12:03 52.31379 4.78553 -5 ft 20 kts 86°
2026-05-07 12:03 52.31388 4.78782 -4 ft 21 kts 86°
2026-05-07 12:04 52.31397 4.79018 -4 ft 20 kts 86°
2026-05-07 12:04 52.31408 4.79260 -4 ft 21 kts 87°
2026-05-07 12:04 52.31415 4.79463 -5 ft 12 kts 86°
2026-05-07 12:04 52.31413 4.79571 -4 ft 3 kts 114°
2026-05-07 12:05 52.31397 4.79609 -5 ft 6 kts 131°
2026-05-07 12:05 52.31362 4.79673 -4 ft 7 kts 131°
2026-05-07 12:05 52.31321 4.79749 -4 ft 9 kts 131°
2026-05-07 12:05 52.31273 4.79839 -4 ft 11 kts 131°
2026-05-07 12:06 52.31218 4.79941 -4 ft 13 kts 132°
2026-05-07 12:06 52.31160 4.80052 -4 ft 11 kts 131°
2026-05-07 12:06 52.31106 4.80152 -4 ft 9 kts 130°
2026-05-07 12:06 52.31062 4.80235 -4 ft 7 kts 132°
2026-05-07 12:07 52.31038 4.80291 -4 ft 3 kts 79°
2026-05-07 12:07 52.31064 4.80335 -4 ft 4 kts 43°
2026-05-07 12:07 52.31089 4.80374 -4 ft 6 kts 41°
2026-05-07 12:07 52.31126 4.80425 -4 ft 4 kts 27°
2026-05-07 12:08 52.31147 4.80409 -5 ft 3 kts 313°
2026-05-07 12:08 52.31154 4.80395 -4 ft 0 kts 311°